Time,TemperatureF,DewpointF,PressureIn,WindDirection,WindDirectionDegrees,WindSpeedMPH,WindSpeedGustMPH,Humidity,HourlyPrecipIn,Conditions,Clouds,dailyrainin,SoftwareType,DateUTC
2013-01-02 00:01:00,23.2,17.8,29.09,NW,309,11.1,18.8,77,-99.99,,,-99.99,WSDL version 420,2013-01-02 07:01:00,
2013-01-02 00:06:00,23.2,17.6,29.09,WNW,298,11.3,19.9,76,-99.99,,,-99.99,WSDL version 420,2013-01-02 07:06:00,
2013-01-02 00:11:00,23.0,17.2,29.06,NW,307,12.0,19.9,75,-99.99,,,-99.99,WSDL version 420,2013-01-02 07:11:00,
2013-01-02 00:16:00,22.9,16.9,29.06,WNW,302,10.0,17.0,75,-99.99,,,-99.99,WSDL version 420,2013-01-02 07:16:00,
2013-01-02 00:21:00,22.8,16.6,29.06,NNW,334,16.5,20.1,74,-99.99,,,-99.99,WSDL version 420,2013-01-02 07:21:00,
2013-01-02 00:26:00,22.8,16.6,29.06,NW,309,16.7,23.5,74,-99.99,,,-99.99,WSDL version 420,2013-01-02 07:26:00,
2013-01-02 00:31:00,22.8,16.4,29.06,WNW,300,10.3,23.5,73,-99.99,,,-99.99,WSDL version 420,2013-01-02 07:31:00,
2013-01-02 00:36:00,22.8,16.3,29.06,WNW,296,13.8,18.6,73,-99.99,,,-99.99,WSDL version 420,2013-01-02 07:36:00,
2013-01-02 00:41:00,22.8,16.0,29.06,NW,312,12.2,18.6,72,-99.99,,,-99.99,WSDL version 420,2013-01-02 07:41:00,
2013-01-02 00:46:00,22.8,16.0,29.06,WNW,296,11.4,21.9,72,-99.99,,,-99.99,WSDL version 420,2013-01-02 07:46:00,
2013-01-02 00:51:00,22.8,16.0,29.06,NW,305,12.8,21.9,72,-99.99,,,-99.99,WSDL version 420,2013-01-02 07:51:00,
2013-01-02 00:57:00,22.6,15.5,29.06,WNW,293,13.0,19.7,71,-99.99,,,-99.99,WSDL version 420,2013-01-02 07:57:00,
2013-01-02 01:02:00,22.6,15.5,29.06,NW,304,13.9,17.7,71,-99.99,,,-99.99,WSDL version 420,2013-01-02 08:02:00,
2013-01-02 01:07:00,22.6,15.3,29.06,WNW,296,11.1,17.7,70,-99.99,,,-99.99,WSDL version 420,2013-01-02 08:07:00,
2013-01-02 01:12:00,22.4,14.9,29.06,NW,308,10.8,15.2,69,-99.99,,,-99.99,WSDL version 420,2013-01-02 08:12:00,
2013-01-02 01:17:00,22.3,14.9,29.06,WNW,299,12.0,15.4,70,-99.99,,,-99.99,WSDL version 420,2013-01-02 08:17:00,
2013-01-02 01:22:00,22.3,15.1,29.06,WNW,293,12.6,19.5,71,-99.99,,,-99.99,WSDL version 420,2013-01-02 08:22:00,
2013-01-02 01:27:00,22.5,15.1,29.06,WNW,295,10.5,19.5,70,-99.99,,,-99.99,WSDL version 420,2013-01-02 08:27:00,
2013-01-02 01:32:00,22.2,14.4,29.06,WNW,298,10.4,15.4,68,-99.99,,,-99.99,WSDL version 420,2013-01-02 08:32:00,
2013-01-02 01:37:00,22.0,13.9,29.06,NW,304,11.1,15.4,67,-99.99,,,-99.99,WSDL version 420,2013-01-02 08:37:00,
2013-01-02 01:42:00,21.7,13.0,29.06,WNW,287,7.4,15.4,66,-99.99,,,-99.99,WSDL version 420,2013-01-02 08:42:00,
2013-01-02 01:47:00,21.3,12.5,29.06,WNW,293,7.6,12.8,65,-99.99,,,-99.99,WSDL version 420,2013-01-02 08:47:00,
2013-01-02 01:52:00,21.1,12.2,29.06,WNW,296,7.8,12.8,65,-99.99,,,-99.99,WSDL version 420,2013-01-02 08:52:00,
2013-01-02 01:57:00,20.7,11.8,29.06,WNW,299,8.1,11.0,64,-99.99,,,-99.99,WSDL version 420,2013-01-02 08:57:00,
2013-01-02 02:02:00,20.6,11.8,29.06,NW,304,11.3,13.4,65,-99.99,,,-99.99,WSDL version 420,2013-01-02 09:02:00,
2013-01-02 02:07:00,20.7,11.8,29.06,WNW,293,10.7,13.4,65,-99.99,,,-99.99,WSDL version 420,2013-01-02 09:07:00,
2013-01-02 02:12:00,20.6,11.6,29.06,WNW,293,10.5,12.8,64,-99.99,,,-99.99,WSDL version 420,2013-01-02 09:12:00,
2013-01-02 02:17:00,-999.0,-99.9,29.06,WNW,296,12.9,15.7,-999,-99.99,,,-99.99,WSDL version 420,2013-01-02 09:17:00,
2013-01-02 02:22:00,20.6,11.1,29.06,WNW,299,12.6,19.7,62,-99.99,,,-99.99,WSDL version 420,2013-01-02 09:22:00,
2013-01-02 02:27:00,20.7,10.7,29.06,WNW,293,12.5,19.7,61,-99.99,,,-99.99,WSDL version 420,2013-01-02 09:27:00,
2013-01-02 02:32:00,20.8,10.5,29.06,NW,305,12.9,18.8,60,-99.99,,,-99.99,WSDL version 420,2013-01-02 09:32:00,
2013-01-02 02:37:00,20.9,10.3,29.06,NW,305,10.2,18.8,59,-99.99,,,-99.99,WSDL version 420,2013-01-02 09:37:00,
2013-01-02 02:42:00,21.1,10.5,29.06,NW,309,14.3,22.4,60,-99.99,,,-99.99,WSDL version 420,2013-01-02 09:42:00,
2013-01-02 02:47:00,21.4,10.8,29.06,NW,311,12.9,22.4,59,-99.99,,,-99.99,WSDL version 420,2013-01-02 09:47:00,
2013-01-02 02:52:00,21.6,10.7,29.06,West,281,13.0,17.2,58,-99.99,,,-99.99,WSDL version 420,2013-01-02 09:52:00,
2013-01-02 02:57:00,21.7,10.6,29.06,WNW,293,13.7,17.2,58,-99.99,,,-99.99,WSDL version 420,2013-01-02 09:57:00,
2013-01-02 03:02:00,21.7,10.3,29.06,NW,308,11.2,18.8,57,-99.99,,,-99.99,WSDL version 420,2013-01-02 10:02:00,
2013-01-02 03:07:00,21.6,9.9,29.06,WNW,295,12.1,18.8,56,-99.99,,,-99.99,WSDL version 420,2013-01-02 10:07:00,
2013-01-02 03:12:00,21.4,9.5,29.06,WNW,293,11.0,17.7,56,-99.99,,,-99.99,WSDL version 420,2013-01-02 10:12:00,
2013-01-02 03:17:00,21.2,9.4,29.06,WNW,286,10.8,17.7,56,-99.99,,,-99.99,WSDL version 420,2013-01-02 10:17:00,
2013-01-02 03:22:00,21.4,9.5,29.06,WNW,293,11.9,17.7,56,-99.99,,,-99.99,WSDL version 420,2013-01-02 10:22:00,
2013-01-02 03:27:00,21.6,9.7,29.06,WNW,295,11.4,15.4,56,-99.99,,,-99.99,WSDL version 420,2013-01-02 10:27:00,
2013-01-02 03:32:00,21.5,9.3,29.06,NW,309,10.6,15.2,55,-99.99,,,-99.99,WSDL version 420,2013-01-02 10:32:00,
2013-01-02 03:37:00,21.5,9.3,29.06,NW,309,10.6,15.2,55,-99.99,,,-99.99,WSDL version 420,2013-01-02 10:37:00,
2013-01-02 03:42:00,21.6,9.4,29.09,WNW,296,12.0,19.0,55,-99.99,,,-99.99,WSDL version 420,2013-01-02 10:42:00,
2013-01-02 03:47:00,21.6,9.0,29.09,NW,308,13.2,19.0,54,-99.99,,,-99.99,WSDL version 420,2013-01-02 10:47:00,
2013-01-02 03:53:00,21.6,8.8,29.09,NW,312,12.0,17.9,53,-99.99,,,-99.99,WSDL version 420,2013-01-02 10:53:00,
2013-01-02 03:58:00,21.6,8.6,29.09,NW,309,14.1,20.1,53,-99.99,,,-99.99,WSDL version 420,2013-01-02 10:58:00,
2013-01-02 04:03:00,21.7,9.1,29.09,WNW,302,13.3,20.1,54,-99.99,,,-99.99,WSDL version 420,2013-01-02 11:03:00,
2013-01-02 04:08:00,21.7,9.3,29.09,WNW,293,10.9,17.7,55,-99.99,,,-99.99,WSDL version 420,2013-01-02 11:08:00,
2013-01-02 04:13:00,-999.0,-99.9,29.09,NW,308,13.1,20.4,-999,-99.99,,,-99.99,WSDL version 420,2013-01-02 11:13:00,
2013-01-02 04:18:00,21.7,9.5,29.09,NW,308,10.2,20.4,55,-99.99,,,-99.99,WSDL version 420,2013-01-02 11:18:00,
2013-01-02 04:23:00,21.9,10.0,29.09,NW,304,13.1,17.2,56,-99.99,,,-99.99,WSDL version 420,2013-01-02 11:23:00,
2013-01-02 04:28:00,22.1,10.5,29.09,WNW,298,12.6,17.7,57,-99.99,,,-99.99,WSDL version 420,2013-01-02 11:28:00,
2013-01-02 04:33:00,22.1,10.6,29.09,NW,315,10.6,17.7,57,-99.99,,,-99.99,WSDL version 420,2013-01-02 11:33:00,
2013-01-02 04:38:00,22.1,10.6,29.09,WNW,300,12.7,15.4,57,-99.99,,,-99.99,WSDL version 420,2013-01-02 11:38:00,
2013-01-02 04:43:00,22.3,10.8,29.09,NW,304,11.2,15.4,57,-99.99,,,-99.99,WSDL version 420,2013-01-02 11:43:00,
2013-01-02 04:48:00,22.3,10.6,29.09,WNW,295,8.9,13.4,56,-99.99,,,-99.99,WSDL version 420,2013-01-02 11:48:00,
2013-01-02 04:53:00,22.1,9.9,29.09,WNW,300,10.7,15.4,55,-99.99,,,-99.99,WSDL version 420,2013-01-02 11:53:00,
2013-01-02 04:58:00,22.1,9.5,29.06,NW,306,12.4,16.8,54,-99.99,,,-99.99,WSDL version 420,2013-01-02 11:58:00,
2013-01-02 05:03:00,22.3,9.4,29.06,WNW,293,11.3,16.8,53,-99.99,,,-99.99,WSDL version 420,2013-01-02 12:03:00,
2013-01-02 05:08:00,22.4,9.4,29.06,NW,308,13.6,16.6,53,-99.99,,,-99.99,WSDL version 420,2013-01-02 12:08:00,
2013-01-02 05:13:00,22.6,9.2,29.06,WNW,295,12.1,16.6,52,-99.99,,,-99.99,WSDL version 420,2013-01-02 12:13:00,
2013-01-02 05:18:00,22.6,8.8,29.06,NW,308,11.6,17.2,50,-99.99,,,-99.99,WSDL version 420,2013-01-02 12:18:00,
2013-01-02 05:23:00,22.3,7.8,29.06,WNW,302,15.1,24.2,48,-99.99,,,-99.99,WSDL version 420,2013-01-02 12:23:00,
2013-01-02 05:28:00,22.3,7.0,29.09,NW,309,14.8,24.2,47,-99.99,,,-99.99,WSDL version 420,2013-01-02 12:28:00,
2013-01-02 05:33:00,22.3,6.9,29.09,WNW,302,14.7,20.6,47,-99.99,,,-99.99,WSDL version 420,2013-01-02 12:33:00,
2013-01-02 05:38:00,22.4,6.6,29.09,NW,312,14.9,20.1,46,-99.99,,,-99.99,WSDL version 420,2013-01-02 12:38:00,
2013-01-02 05:43:00,22.5,6.5,29.09,NW,318,13.9,20.1,45,-99.99,,,-99.99,WSDL version 420,2013-01-02 12:43:00,
2013-01-02 05:48:00,22.5,6.2,29.09,NW,315,11.9,17.0,45,-99.99,,,-99.99,WSDL version 420,2013-01-02 12:48:00,
2013-01-02 05:53:00,22.5,6.2,29.09,NW,304,11.4,17.0,45,-99.99,,,-99.99,WSDL version 420,2013-01-02 12:53:00,
2013-01-02 05:58:00,22.4,6.2,29.09,NW,318,10.9,14.8,45,-99.99,,,-99.99,WSDL version 420,2013-01-02 12:58:00,
2013-01-02 06:03:00,22.3,6.1,29.09,NW,308,11.3,17.0,45,-99.99,,,-99.99,WSDL version 420,2013-01-02 13:03:00,
2013-01-02 06:08:00,22.3,6.1,29.09,WNW,296,12.1,17.4,45,-99.99,,,-99.99,WSDL version 420,2013-01-02 13:08:00,
2013-01-02 06:13:00,22.3,5.9,29.09,WNW,302,12.8,17.4,44,-99.99,,,-99.99,WSDL version 420,2013-01-02 13:13:00,
2013-01-02 06:18:00,22.2,5.6,29.09,West,280,10.4,13.4,44,-99.99,,,-99.99,WSDL version 420,2013-01-02 13:18:00,
2013-01-02 06:23:00,17.5,1.2,29.09,NW,312,10.1,13.4,44,-99.99,,,-99.99,WSDL version 420,2013-01-02 13:23:00,
2013-01-02 06:28:00,22.0,5.4,29.09,NW,308,9.8,12.8,44,-99.99,,,-99.99,WSDL version 420,2013-01-02 13:28:00,
2013-01-02 06:33:00,21.9,5.3,29.09,WNW,290,12.4,17.2,44,-99.99,,,-99.99,WSDL version 420,2013-01-02 13:33:00,
2013-01-02 06:38:00,21.8,4.8,29.09,NW,315,11.2,17.2,43,-99.99,,,-99.99,WSDL version 420,2013-01-02 13:38:00,
2013-01-02 06:43:00,21.9,4.9,29.09,NW,315,11.4,16.3,43,-99.99,,,-99.99,WSDL version 420,2013-01-02 13:43:00,
2013-01-02 06:48:00,21.9,4.9,29.09,WNW,302,11.4,15.2,43,-99.99,,,-99.99,WSDL version 420,2013-01-02 13:48:00,
2013-01-02 06:53:00,21.9,4.9,29.09,WNW,296,9.9,15.2,43,-99.99,,,-99.99,WSDL version 420,2013-01-02 13:53:00,
2013-01-02 06:58:00,21.9,4.9,29.09,WNW,299,9.0,14.8,43,-99.99,,,-99.99,WSDL version 420,2013-01-02 13:58:00,
2013-01-02 07:03:00,21.9,4.9,29.09,WNW,302,9.8,14.8,43,-99.99,,,-99.99,WSDL version 420,2013-01-02 14:03:00,
2013-01-02 07:08:00,21.7,4.7,29.09,NW,308,9.3,13.9,43,-99.99,,,-99.99,WSDL version 420,2013-01-02 14:08:00,
2013-01-02 07:13:00,21.5,4.5,29.09,WNW,301,12.4,13.9,43,-99.99,,,-99.99,WSDL version 420,2013-01-02 14:13:00,
2013-01-02 07:18:00,21.4,4.4,29.09,NW,312,11.5,17.4,43,-99.99,,,-99.99,WSDL version 420,2013-01-02 14:18:00,
2013-01-02 07:23:00,21.4,4.4,29.09,WNW,301,9.7,17.4,43,-99.99,,,-99.99,WSDL version 420,2013-01-02 14:23:00,
2013-01-02 07:28:00,21.4,4.4,29.09,NW,310,11.4,16.1,43,-99.99,,,-99.99,WSDL version 420,2013-01-02 14:28:00,
2013-01-02 07:33:00,21.2,4.2,29.09,NW,315,12.8,17.4,43,-99.99,,,-99.99,WSDL version 420,2013-01-02 14:33:00,
2013-01-02 07:38:00,21.2,4.1,29.09,WNW,295,10.5,17.4,43,-99.99,,,-99.99,WSDL version 420,2013-01-02 14:38:00,
2013-01-02 07:43:00,-999.0,-99.9,29.09,NW,308,11.3,16.8,-999,-99.99,,,-99.99,WSDL version 420,2013-01-02 14:43:00,
2013-01-02 07:48:00,20.7,3.7,29.09,NW,315,11.8,22.1,43,-99.99,,,-99.99,WSDL version 420,2013-01-02 14:48:00,
2013-01-02 07:53:00,20.5,3.5,29.09,WNW,296,13.2,22.1,43,-99.99,,,-99.99,WSDL version 420,2013-01-02 14:53:00,
2013-01-02 07:58:00,20.3,2.9,29.09,WNW,302,11.2,17.7,42,-99.99,,,-99.99,WSDL version 420,2013-01-02 14:58:00,
2013-01-02 08:03:00,20.0,2.6,29.09,WNW,296,12.8,15.7,42,-99.99,,,-99.99,WSDL version 420,2013-01-02 15:03:00,
2013-01-02 08:08:00,19.9,2.5,29.09,WNW,293,12.1,17.4,42,-99.99,,,-99.99,WSDL version 420,2013-01-02 15:08:00,
2013-01-02 08:13:00,19.7,2.3,29.09,WNW,284,12.3,17.4,42,-99.99,,,-99.99,WSDL version 420,2013-01-02 15:13:00,
2013-01-02 08:18:00,19.6,2.2,29.09,WNW,293,10.0,14.5,42,-99.99,,,-99.99,WSDL version 420,2013-01-02 15:18:00,
2013-01-02 08:23:00,19.8,2.5,29.09,West,276,9.5,14.5,42,-99.99,,,-99.99,WSDL version 420,2013-01-02 15:23:00,
2013-01-02 08:28:00,20.2,2.8,29.09,WNW,298,10.6,17.4,42,-99.99,,,-99.99,WSDL version 420,2013-01-02 15:28:00,
2013-01-02 08:33:00,20.4,2.9,29.09,WNW,286,11.7,17.7,42,-99.99,,,-99.99,WSDL version 420,2013-01-02 15:33:00,
2013-01-02 08:38:00,20.8,3.3,29.09,WNW,293,9.9,17.7,42,-99.99,,,-99.99,WSDL version 420,2013-01-02 15:38:00,
2013-01-02 08:43:00,21.0,3.4,29.09,WNW,289,9.7,13.2,41,-99.99,,,-99.99,WSDL version 420,2013-01-02 15:43:00,
2013-01-02 08:48:00,21.2,3.4,29.09,WNW,286,9.2,13.9,41,-99.99,,,-99.99,WSDL version 420,2013-01-02 15:48:00,
2013-01-02 08:53:00,21.5,3.2,29.09,WNW,287,11.1,17.0,40,-99.99,,,-99.99,WSDL version 420,2013-01-02 15:53:00,
2013-01-02 08:58:00,21.6,3.1,29.09,WNW,295,10.4,17.0,40,-99.99,,,-99.99,WSDL version 420,2013-01-02 15:58:00,
2013-01-02 09:03:00,21.6,2.7,29.09,WNW,293,10.6,13.2,39,-99.99,,,-99.99,WSDL version 420,2013-01-02 16:03:00,
2013-01-02 09:08:00,21.6,2.5,29.09,WNW,286,11.3,15.4,38,-99.99,,,-99.99,WSDL version 420,2013-01-02 16:08:00,
2013-01-02 09:13:00,21.8,2.4,29.09,West,270,8.6,15.4,38,-99.99,,,-99.99,WSDL version 420,2013-01-02 16:13:00,
2013-01-02 09:18:00,21.9,2.5,29.09,WNW,285,9.6,13.2,38,-99.99,,,-99.99,WSDL version 420,2013-01-02 16:18:00,
2013-01-02 09:23:00,22.5,3.0,29.09,WNW,290,9.1,13.0,38,-99.99,,,-99.99,WSDL version 420,2013-01-02 16:23:00,
2013-01-02 09:28:00,23.3,3.6,29.09,WNW,289,8.6,12.3,37,-99.99,,,-99.99,WSDL version 420,2013-01-02 16:28:00,
2013-01-02 09:33:00,23.9,3.8,29.09,WNW,296,8.6,12.3,37,-99.99,,,-99.99,WSDL version 420,2013-01-02 16:33:00,
2013-01-02 09:38:00,24.6,4.0,29.09,WNW,290,7.7,12.5,36,-99.99,,,-99.99,WSDL version 420,2013-01-02 16:38:00,
2013-01-02 09:43:00,25.0,4.1,29.09,WNW,285,9.0,13.2,35,-99.99,,,-99.99,WSDL version 420,2013-01-02 16:43:00,
2013-01-02 09:48:00,25.1,3.8,29.09,WNW,293,10.8,15.4,35,-99.99,,,-99.99,WSDL version 420,2013-01-02 16:48:00,
2013-01-02 09:53:00,25.6,3.8,29.09,WNW,293,9.2,15.4,34,-99.99,,,-99.99,WSDL version 420,2013-01-02 16:53:00,
2013-01-02 09:58:00,26.5,4.5,29.06,West,266,5.8,12.5,34,-99.99,,,-99.99,WSDL version 420,2013-01-02 16:58:00,
2013-01-02 10:03:00,25.8,3.8,29.06,West,270,7.5,10.3,34,-99.99,,,-99.99,WSDL version 420,2013-01-02 17:03:00,
2013-01-02 10:08:00,25.9,4.0,29.06,West,278,5.4,10.3,34,-99.99,,,-99.99,WSDL version 420,2013-01-02 17:08:00,
2013-01-02 10:13:00,26.7,4.4,29.09,WNW,283,7.4,10.3,33,-99.99,,,-99.99,WSDL version 420,2013-01-02 17:13:00,
2013-01-02 10:18:00,27.5,5.0,29.09,West,273,9.0,10.3,33,-99.99,,,-99.99,WSDL version 420,2013-01-02 17:18:00,
2013-01-02 10:23:00,-999.0,-99.9,29.09,West,278,9.7,11.4,-999,-99.99,,,-99.99,WSDL version 420,2013-01-02 17:23:00,
2013-01-02 10:28:00,28.2,5.4,29.06,WNW,293,9.1,11.4,33,-99.99,,,-99.99,WSDL version 420,2013-01-02 17:28:00,
2013-01-02 10:33:00,29.4,6.2,29.06,WNW,295,8.7,12.8,32,-99.99,,,-99.99,WSDL version 420,2013-01-02 17:33:00,
2013-01-02 10:38:00,30.6,6.4,29.06,WNW,293,10.2,12.8,31,-99.99,,,-99.99,WSDL version 420,2013-01-02 17:38:00,
2013-01-02 10:43:00,31.1,6.7,29.09,NW,326,11.8,16.8,31,-99.99,,,-99.99,WSDL version 420,2013-01-02 17:43:00,
2013-01-02 10:48:00,31.3,6.4,29.09,WNW,300,11.7,17.0,30,-99.99,,,-99.99,WSDL version 420,2013-01-02 17:48:00,
2013-01-02 10:53:00,31.6,6.6,29.09,WNW,289,12.7,17.0,30,-99.99,,,-99.99,WSDL version 420,2013-01-02 17:53:00,
2013-01-02 10:58:00,31.3,6.4,29.09,WNW,301,11.4,17.0,30,-99.99,,,-99.99,WSDL version 420,2013-01-02 17:58:00,
2013-01-02 11:03:00,30.2,5.4,29.09,NW,305,9.7,17.0,30,-99.99,,,-99.99,WSDL version 420,2013-01-02 18:03:00,
2013-01-02 11:08:00,30.6,5.7,29.09,NW,308,8.9,15.4,30,-99.99,,,-99.99,WSDL version 420,2013-01-02 18:08:00,
2013-01-02 11:13:00,31.7,5.8,29.09,NNW,328,10.6,15.7,30,-99.99,,,-99.99,WSDL version 420,2013-01-02 18:13:00,
2013-01-02 11:18:00,32.9,3.7,29.09,WNW,300,13.0,17.4,28,-99.99,,,-99.99,WSDL version 420,2013-01-02 18:18:00,
2013-01-02 11:23:00,34.6,4.6,29.09,NW,305,9.5,17.4,27,-99.99,,,-99.99,WSDL version 420,2013-01-02 18:23:00,
2013-01-02 11:28:00,34.4,3.9,29.06,NW,318,11.8,17.9,27,-99.99,,,-99.99,WSDL version 420,2013-01-02 18:28:00,
2013-01-02 11:33:00,33.2,3.4,29.06,NW,315,13.4,17.9,28,-99.99,,,-99.99,WSDL version 420,2013-01-02 18:33:00,
2013-01-02 11:38:00,-999.0,-99.9,29.06,WNW,300,10.5,15.4,-999,-99.99,,,-99.99,WSDL version 420,2013-01-02 18:38:00,
2013-01-02 11:43:00,33.9,3.7,29.06,NW,305,12.8,15.2,27,-99.99,,,-99.99,WSDL version 420,2013-01-02 18:43:00,
2013-01-02 11:48:00,34.5,3.1,29.06,NW,323,12.1,15.4,25,-99.99,,,-99.99,WSDL version 420,2013-01-02 18:48:00,
2013-01-02 11:53:00,34.6,2.8,29.06,WNW,299,12.2,19.9,25,-99.99,,,-99.99,WSDL version 420,2013-01-02 18:53:00,
2013-01-02 11:58:00,35.2,2.9,29.06,NW,319,12.5,19.9,25,-99.99,,,-99.99,WSDL version 420,2013-01-02 18:58:00,
2013-01-02 12:03:00,34.6,2.4,29.06,WNW,301,10.6,15.2,25,-99.99,,,-99.99,WSDL version 420,2013-01-02 19:03:00,
2013-01-02 12:08:00,33.9,1.7,29.06,NW,315,12.8,17.7,25,-99.99,,,-99.99,WSDL version 420,2013-01-02 19:08:00,
2013-01-02 12:13:00,32.9,0.9,29.06,NW,315,14.4,21.0,25,-99.99,,,-99.99,WSDL version 420,2013-01-02 19:13:00,
2013-01-02 12:18:00,32.7,0.7,29.06,NW,315,13.4,21.0,25,-99.99,,,-99.99,WSDL version 420,2013-01-02 19:18:00,
2013-01-02 12:23:00,32.6,0.6,29.06,NW,315,10.9,18.6,25,-99.99,,,-99.99,WSDL version 420,2013-01-02 19:23:00,
2013-01-02 12:28:00,32.2,1.4,29.06,NW,323,11.8,23.3,25,-99.99,,,-99.99,WSDL version 420,2013-01-02 19:28:00,
2013-01-02 12:33:00,31.0,2.6,29.06,NW,321,15.6,23.3,25,-99.99,,,-99.99,WSDL version 420,2013-01-02 19:33:00,
2013-01-02 12:38:00,30.3,4.1,29.06,NW,315,16.0,24.6,28,-99.99,,,-99.99,WSDL version 420,2013-01-02 19:38:00,
2013-01-02 12:43:00,30.0,3.1,29.06,NW,326,15.6,24.6,25,-99.99,,,-99.99,WSDL version 420,2013-01-02 19:43:00,
2013-01-02 12:48:00,29.0,3.0,29.06,NW,305,13.8,22.6,28,-99.99,,,-99.99,WSDL version 420,2013-01-02 19:48:00,
2013-01-02 12:53:00,28.6,2.6,29.06,NW,321,16.0,22.4,28,-99.99,,,-99.99,WSDL version 420,2013-01-02 19:53:00,
2013-01-02 12:58:00,28.1,2.2,29.06,NW,318,14.8,26.2,28,-99.99,,,-99.99,WSDL version 420,2013-01-02 19:58:00,
2013-01-02 13:03:00,27.8,1.9,29.06,NW,312,14.6,26.2,28,-99.99,,,-99.99,WSDL version 420,2013-01-02 20:03:00,
2013-01-02 13:08:00,27.4,1.6,29.06,NW,321,16.3,23.7,28,-99.99,,,-99.99,WSDL version 420,2013-01-02 20:08:00,
2013-01-02 13:13:00,27.2,3.3,29.06,NW,325,13.6,22.6,31,-99.99,,,-99.99,WSDL version 420,2013-01-02 20:13:00,
2013-01-02 13:18:00,27.0,3.1,29.06,NNW,332,16.6,22.6,31,-99.99,,,-99.99,WSDL version 420,2013-01-02 20:18:00,
2013-01-02 13:23:00,26.7,2.8,29.06,NNW,338,13.5,23.3,31,-99.99,,,-99.99,WSDL version 420,2013-01-02 20:23:00,
2013-01-02 13:28:00,26.8,3.0,29.06,NW,325,14.2,23.3,31,-99.99,,,-99.99,WSDL version 420,2013-01-02 20:28:00,
2013-01-02 13:33:00,26.6,3.2,29.06,NW,321,11.3,19.7,32,-99.99,,,-99.99,WSDL version 420,2013-01-02 20:33:00,
2013-01-02 13:38:00,26.5,3.3,29.06,NW,326,14.5,20.1,32,-99.99,,,-99.99,WSDL version 420,2013-01-02 20:38:00,
2013-01-02 13:43:00,26.8,3.1,29.06,NW,315,13.0,27.5,31,-99.99,,,-99.99,WSDL version 420,2013-01-02 20:43:00,
2013-01-02 13:48:00,26.7,3.1,29.06,NNW,331,17.1,27.5,32,-99.99,,,-99.99,WSDL version 420,2013-01-02 20:48:00,
2013-01-02 13:53:00,26.3,3.4,29.06,NNW,338,19.5,26.4,33,-99.99,,,-99.99,WSDL version 420,2013-01-02 20:53:00,
2013-01-02 13:58:00,26.2,3.4,29.06,NW,318,15.4,26.4,33,-99.99,,,-99.99,WSDL version 420,2013-01-02 20:58:00,
2013-01-02 14:03:00,26.0,3.3,29.06,NW,326,16.8,26.4,33,-99.99,,,-99.99,WSDL version 420,2013-01-02 21:03:00,
2013-01-02 14:08:00,25.1,6.2,29.06,NNW,338,19.4,25.9,36,-99.99,,,-99.99,WSDL version 420,2013-01-02 21:08:00,
2013-01-02 14:13:00,24.5,3.4,29.06,NW,320,19.3,27.1,36,-99.99,,,-99.99,WSDL version 420,2013-01-02 21:13:00,
2013-01-02 14:18:00,24.1,2.8,29.06,NNW,338,18.9,27.1,35,-99.99,,,-99.99,WSDL version 420,2013-01-02 21:18:00,
2013-01-02 14:23:00,24.1,2.8,29.06,NNW,338,14.6,27.7,35,-99.99,,,-99.99,WSDL version 420,2013-01-02 21:23:00,
2013-01-02 14:28:00,23.6,2.5,29.09,NW,324,18.9,27.7,36,-99.99,,,-99.99,WSDL version 420,2013-01-02 21:28:00,
2013-01-02 14:33:00,23.3,2.1,29.09,NNW,331,18.1,27.7,35,-99.99,,,-99.99,WSDL version 420,2013-01-02 21:33:00,
2013-01-02 14:38:00,23.4,2.6,29.09,NNW,338,17.6,26.4,35,-99.99,,,-99.99,WSDL version 420,2013-01-02 21:38:00,
2013-01-02 14:43:00,23.1,2.3,29.09,NW,318,13.2,26.4,36,-99.99,,,-99.99,WSDL version 420,2013-01-02 21:43:00,
2013-01-02 14:48:00,22.8,2.2,29.09,NW,323,10.7,22.6,36,-99.99,,,-99.99,WSDL version 420,2013-01-02 21:48:00,
2013-01-02 14:53:00,22.5,1.9,29.09,NNW,343,12.0,18.6,36,-99.99,,,-99.99,WSDL version 420,2013-01-02 21:53:00,
2013-01-02 14:58:00,22.2,1.7,29.09,NNW,338,15.9,21.9,36,-99.99,,,-99.99,WSDL version 420,2013-01-02 21:58:00,
2013-01-02 15:03:00,21.7,1.9,29.09,NNW,343,13.0,21.9,38,-99.99,,,-99.99,WSDL version 420,2013-01-02 22:03:00,
2013-01-02 15:08:00,21.4,2.3,29.09,NNW,338,13.9,23.9,39,-99.99,,,-99.99,WSDL version 420,2013-01-02 22:08:00,
2013-01-02 15:13:00,21.3,3.1,29.09,NNW,338,16.1,23.9,41,-99.99,,,-99.99,WSDL version 420,2013-01-02 22:13:00,
2013-01-02 15:18:00,21.0,3.6,29.09,NNW,344,12.7,19.9,42,-99.99,,,-99.99,WSDL version 420,2013-01-02 22:18:00,
2013-01-02 15:23:00,20.7,3.7,29.09,NNW,344,13.8,18.1,43,-99.99,,,-99.99,WSDL version 420,2013-01-02 22:23:00,
2013-01-02 15:28:00,20.3,3.5,29.09,NNW,345,12.6,17.7,44,-99.99,,,-99.99,WSDL version 420,2013-01-02 22:28:00,
2013-01-02 15:33:00,20.0,3.5,29.09,NNW,338,13.3,19.0,44,-99.99,,,-99.99,WSDL version 420,2013-01-02 22:33:00,
2013-01-02 15:38:00,19.7,3.6,29.09,NNW,341,10.6,19.0,45,-99.99,,,-99.99,WSDL version 420,2013-01-02 22:38:00,
2013-01-02 15:43:00,19.4,3.8,29.06,NNW,334,12.4,14.8,46,-99.99,,,-99.99,WSDL version 420,2013-01-02 22:43:00,
2013-01-02 15:48:00,19.2,4.0,29.06,NNW,341,12.2,15.4,48,-99.99,,,-99.99,WSDL version 420,2013-01-02 22:48:00,
2013-01-02 15:53:00,19.0,4.3,29.06,NNW,338,10.8,17.0,48,-99.99,,,-99.99,WSDL version 420,2013-01-02 22:53:00,
2013-01-02 15:58:00,18.7,4.3,29.09,NNW,338,9.3,17.0,49,-99.99,,,-99.99,WSDL version 420,2013-01-02 22:58:00,
2013-01-02 16:03:00,18.5,4.2,29.09,North,349,7.7,12.8,49,-99.99,,,-99.99,WSDL version 420,2013-01-02 23:03:00,
2013-01-02 16:08:00,18.4,4.3,29.09,NNW,338,9.2,13.0,50,-99.99,,,-99.99,WSDL version 420,2013-01-02 23:08:00,
2013-01-02 16:13:00,18.1,4.5,29.09,NNW,338,9.9,14.8,52,-99.99,,,-99.99,WSDL version 420,2013-01-02 23:13:00,
2013-01-02 16:18:00,17.8,5.0,29.09,NNW,338,10.8,14.8,53,-99.99,,,-99.99,WSDL version 420,2013-01-02 23:18:00,
2013-01-02 16:23:00,17.6,5.1,29.09,NNW,341,9.1,14.8,54,-99.99,,,-99.99,WSDL version 420,2013-01-02 23:23:00,
2013-01-02 16:28:00,17.2,4.9,29.12,NNW,343,10.2,15.2,54,-99.99,,,-99.99,WSDL version 420,2013-01-02 23:28:00,
2013-01-02 16:33:00,17.0,5.0,29.12,NNW,338,9.2,15.2,55,-99.99,,,-99.99,WSDL version 420,2013-01-02 23:33:00,
2013-01-02 16:38:00,16.7,4.9,29.12,NNW,343,8.7,13.2,56,-99.99,,,-99.99,WSDL version 420,2013-01-02 23:38:00,
2013-01-02 16:43:00,16.6,5.0,29.12,NNW,331,9.4,13.2,56,-99.99,,,-99.99,WSDL version 420,2013-01-02 23:43:00,
2013-01-02 16:48:00,16.5,5.3,29.12,NNW,341,9.8,14.5,57,-99.99,,,-99.99,WSDL version 420,2013-01-02 23:48:00,
2013-01-02 16:53:00,16.5,5.3,29.12,NNW,335,9.7,14.5,57,-99.99,,,-99.99,WSDL version 420,2013-01-02 23:53:00,
2013-01-02 16:58:00,16.3,5.1,29.12,NNW,335,8.7,13.0,57,-99.99,,,-99.99,WSDL version 420,2013-01-02 23:58:00,
2013-01-02 17:03:00,16.3,5.1,29.12,North,357,9.4,13.0,57,-99.99,,,-99.99,WSDL version 420,2013-01-03 00:03:00,
2013-01-02 17:08:00,16.3,5.3,29.12,NNW,341,10.1,12.5,58,-99.99,,,-99.99,WSDL version 420,2013-01-03 00:08:00,
2013-01-02 17:13:00,16.3,5.4,29.15,North,350,8.3,12.5,58,-99.99,,,-99.99,WSDL version 420,2013-01-03 00:13:00,
2013-01-02 17:18:00,16.3,5.8,29.15,NNW,341,9.2,13.2,59,-99.99,,,-99.99,WSDL version 420,2013-01-03 00:18:00,
2013-01-02 17:23:00,16.2,5.5,29.15,NNW,329,9.3,13.2,59,-99.99,,,-99.99,WSDL version 420,2013-01-03 00:23:00,
2013-01-02 17:28:00,16.0,5.5,29.15,NNW,335,10.2,14.8,59,-99.99,,,-99.99,WSDL version 420,2013-01-03 00:28:00,
2013-01-02 17:33:00,15.9,5.3,29.15,NNW,338,8.6,14.8,59,-99.99,,,-99.99,WSDL version 420,2013-01-03 00:33:00,
2013-01-02 17:38:00,15.6,5.0,29.15,NNW,341,8.5,11.0,59,-99.99,,,-99.99,WSDL version 420,2013-01-03 00:38:00,
2013-01-02 17:43:00,15.3,4.8,29.18,NNW,341,8.0,12.1,59,-99.99,,,-99.99,WSDL version 420,2013-01-03 00:43:00,
2013-01-02 17:48:00,15.1,4.6,29.18,North,360,7.3,12.1,59,-99.99,,,-99.99,WSDL version 420,2013-01-03 00:48:00,
2013-01-02 17:53:00,14.7,4.3,29.18,North,350,9.1,10.5,60,-99.99,,,-99.99,WSDL version 420,2013-01-03 00:53:00,
2013-01-02 17:58:00,14.5,4.4,29.15,North,354,7.9,12.1,60,-99.99,,,-99.99,WSDL version 420,2013-01-03 00:58:00,
2013-01-02 18:03:00,14.5,4.7,29.15,NNW,343,8.3,12.8,62,-99.99,,,-99.99,WSDL version 420,2013-01-03 01:03:00,
2013-01-02 18:08:00,14.4,4.9,29.15,NNW,338,9.3,12.8,62,-99.99,,,-99.99,WSDL version 420,2013-01-03 01:08:00,
2013-01-02 18:13:00,14.3,4.8,29.15,NNW,343,7.2,12.5,62,-99.99,,,-99.99,WSDL version 420,2013-01-03 01:13:00,
2013-01-02 18:18:00,14.0,4.8,29.15,NNW,342,7.6,11.0,63,-99.99,,,-99.99,WSDL version 420,2013-01-03 01:18:00,
2013-01-02 18:23:00,13.8,4.6,29.15,North,3,7.2,10.1,63,-99.99,,,-99.99,WSDL version 420,2013-01-03 01:23:00,
2013-01-02 18:28:00,13.6,4.4,29.15,NNW,343,6.2,8.7,63,-99.99,,,-99.99,WSDL version 420,2013-01-03 01:28:00,
2013-01-02 18:33:00,13.4,4.2,29.15,NNW,347,4.8,8.5,63,-99.99,,,-99.99,WSDL version 420,2013-01-03 01:33:00,
2013-01-02 18:38:00,13.1,3.9,29.15,North,353,5.4,9.2,63,-99.99,,,-99.99,WSDL version 420,2013-01-03 01:38:00,
2013-01-02 18:43:00,12.8,3.7,29.15,NNW,340,4.7,9.2,63,-99.99,,,-99.99,WSDL version 420,2013-01-03 01:43:00,
2013-01-02 18:48:00,12.6,3.5,29.15,NW,326,3.6,6.0,63,-99.99,,,-99.99,WSDL version 420,2013-01-03 01:48:00,
2013-01-02 18:53:00,12.1,3.0,29.15,WNW,293,1.2,4.7,63,-99.99,,,-99.99,WSDL version 420,2013-01-03 01:53:00,
2013-01-02 18:58:00,11.4,2.3,29.15,WSW,243,1.8,4.0,63,-99.99,,,-99.99,WSDL version 420,2013-01-03 01:58:00,
2013-01-02 19:03:00,10.8,1.7,29.15,SSW,209,2.6,3.4,63,-99.99,,,-99.99,WSDL version 420,2013-01-03 02:03:00,
2013-01-02 19:08:00,10.3,1.3,29.15,SSW,199,3.0,3.8,63,-99.99,,,-99.99,WSDL version 420,2013-01-03 02:08:00,
2013-01-02 19:13:00,9.4,0.4,29.15,South,185,2.3,3.8,63,-99.99,,,-99.99,WSDL version 420,2013-01-03 02:13:00,
2013-01-02 19:18:00,8.7,-0.3,29.15,West,276,1.6,3.1,63,-99.99,,,-99.99,WSDL version 420,2013-01-03 02:18:00,
2013-01-02 19:23:00,7.9,-1.0,29.15,WNW,289,2.5,3.4,63,-99.99,,,-99.99,WSDL version 420,2013-01-03 02:23:00,
2013-01-02 19:28:00,7.7,-1.2,29.15,WNW,295,2.2,3.8,63,-99.99,,,-99.99,WSDL version 420,2013-01-03 02:28:00,
2013-01-02 19:33:00,7.3,-1.7,29.15,West,280,2.3,3.8,63,-99.99,,,-99.99,WSDL version 420,2013-01-03 02:33:00,
2013-01-02 19:38:00,6.8,-2.2,29.15,WNW,293,2.3,3.4,63,-99.99,,,-99.99,WSDL version 420,2013-01-03 02:38:00,
2013-01-02 19:43:00,6.3,-2.6,29.15,WNW,289,3.1,4.3,63,-99.99,,,-99.99,WSDL version 420,2013-01-03 02:43:00,
2013-01-02 19:48:00,5.9,-2.9,29.15,WNW,284,3.6,5.4,63,-99.99,,,-99.99,WSDL version 420,2013-01-03 02:48:00,
2013-01-02 19:53:00,5.5,-3.4,29.15,West,281,2.5,5.4,63,-99.99,,,-99.99,WSDL version 420,2013-01-03 02:53:00,
2013-01-02 19:58:00,4.9,-4.0,29.15,WNW,302,1.3,3.8,63,-99.99,,,-99.99,WSDL version 420,2013-01-03 02:58:00,
2013-01-02 20:03:00,4.4,-4.4,29.15,WNW,289,2.5,3.4,63,-99.99,,,-99.99,WSDL version 420,2013-01-03 03:03:00,
2013-01-02 20:08:00,4.1,-4.7,29.15,NW,310,2.4,4.3,63,-99.99,,,-99.99,WSDL version 420,2013-01-03 03:08:00,
2013-01-02 20:13:00,4.1,-4.7,29.15,NNW,328,1.2,4.3,63,-99.99,,,-99.99,WSDL version 420,2013-01-03 03:13:00,
2013-01-02 20:18:00,3.9,-4.9,29.15,NNW,338,1.3,2.9,63,-99.99,,,-99.99,WSDL version 420,2013-01-03 03:18:00,
2013-01-02 20:23:00,3.5,-5.3,29.15,West,281,1.6,2.7,63,-99.99,,,-99.99,WSDL version 420,2013-01-03 03:23:00,
2013-01-02 20:28:00,3.2,-5.6,29.18,South,180,0.0,2.7,63,-99.99,,,-99.99,WSDL version 420,2013-01-03 03:28:00,
2013-01-02 20:34:00,2.8,-5.9,29.18,SW,214,1.9,3.4,63,-99.99,,,-99.99,WSDL version 420,2013-01-03 03:34:00,
2013-01-02 20:39:00,2.8,-5.9,29.18,West,274,1.6,4.9,63,-99.99,,,-99.99,WSDL version 420,2013-01-03 03:39:00,
2013-01-02 20:45:00,2.6,-6.2,29.12,West,273,5.5,6.5,63,-99.99,,,-99.99,WSDL version 420,2013-01-03 03:45:00,
2013-01-02 20:50:00,2.3,-6.4,29.12,WNW,289,3.3,6.5,63,-99.99,,,-99.99,WSDL version 420,2013-01-03 03:50:00,
2013-01-02 20:55:00,2.0,-6.7,29.15,WNW,293,3.2,5.6,63,-99.99,,,-99.99,WSDL version 420,2013-01-03 03:55:00,
2013-01-02 21:00:00,2.2,-6.5,29.15,WNW,293,2.3,4.3,63,-99.99,,,-99.99,WSDL version 420,2013-01-03 04:00:00,
2013-01-02 21:05:00,2.1,-6.7,29.15,WNW,293,1.9,4.3,63,-99.99,,,-99.99,WSDL version 420,2013-01-03 04:05:00,
2013-01-02 21:10:00,1.9,-6.8,29.15,WNW,296,1.7,3.4,63,-99.99,,,-99.99,WSDL version 420,2013-01-03 04:10:00,
2013-01-02 21:15:00,1.7,-7.0,29.15,NW,312,2.5,3.4,63,-99.99,,,-99.99,WSDL version 420,2013-01-03 04:15:00,
2013-01-02 21:20:00,2.0,-6.7,29.15,NW,308,3.4,4.0,63,-99.99,,,-99.99,WSDL version 420,2013-01-03 04:20:00,
2013-01-02 21:25:00,2.9,-5.9,29.15,WNW,299,3.6,6.0,63,-99.99,,,-99.99,WSDL version 420,2013-01-03 04:25:00,
2013-01-02 21:30:00,3.9,-4.9,29.15,West,274,3.4,6.0,63,-99.99,,,-99.99,WSDL version 420,2013-01-03 04:30:00,
2013-01-02 21:35:00,4.5,-4.4,29.15,West,264,3.1,6.0,63,-99.99,,,-99.99,WSDL version 420,2013-01-03 04:35:00,
2013-01-02 21:40:00,4.8,-4.1,29.15,SSW,194,2.1,6.0,63,-99.99,,,-99.99,WSDL version 420,2013-01-03 04:40:00,
2013-01-02 21:45:00,4.3,-4.5,29.15,SSW,197,0.0,6.0,63,-99.99,,,-99.99,WSDL version 420,2013-01-03 04:45:00,
2013-01-02 21:50:00,3.8,-5.0,29.15,WSW,238,2.0,2.5,63,-99.99,,,-99.99,WSDL version 420,2013-01-03 04:50:00,
2013-01-02 21:55:00,3.7,-5.1,29.15,WNW,286,4.6,5.6,63,-99.99,,,-99.99,WSDL version 420,2013-01-03 04:55:00,
2013-01-02 22:02:00,3.4,-5.4,29.15,West,281,4.3,6.0,63,-99.99,,,-99.99,WSDL version 420,2013-01-03 05:02:00,
2013-01-02 22:04:00,3.2,-5.5,29.15,WNW,290,3.7,6.0,63,-99.99,,,-99.99,WSDL version 420,2013-01-03 05:04:00,
2013-01-02 22:05:00,3.2,-5.6,29.15,WNW,283,4.0,6.0,63,-99.99,,,-99.99,WSDL version 420,2013-01-03 05:05:00,
2013-01-02 22:10:00,3.1,-5.7,29.15,West,270,4.6,6.0,63,-99.99,,,-99.99,WSDL version 420,2013-01-03 05:10:00,
2013-01-02 22:15:00,3.0,-5.7,29.15,West,276,4.6,7.2,63,-99.99,,,-99.99,WSDL version 420,2013-01-03 05:15:00,
2013-01-02 22:19:00,2.9,-5.9,29.15,West,278,5.6,7.2,63,-99.99,,,-99.99,WSDL version 420,2013-01-03 05:19:00,
2013-01-02 22:24:00,2.6,-6.2,29.18,WNW,288,4.6,7.2,63,-99.99,,,-99.99,WSDL version 420,2013-01-03 05:24:00,
2013-01-02 22:29:00,-999.0,-99.9,29.18,West,274,4.4,6.0,-999,-99.99,,,-99.99,WSDL version 420,2013-01-03 05:29:00,
2013-01-02 22:34:00,2.1,-6.6,29.18,WNW,289,4.2,6.3,63,-99.99,,,-99.99,WSDL version 420,2013-01-03 05:34:00,
2013-01-02 22:39:00,2.2,-6.5,29.18,West,264,3.8,6.3,63,-99.99,,,-99.99,WSDL version 420,2013-01-03 05:39:00,
2013-01-02 22:44:00,2.6,-6.1,29.18,West,280,2.9,5.8,63,-99.99,,,-99.99,WSDL version 420,2013-01-03 05:44:00,
2013-01-02 22:49:00,3.4,-5.4,29.18,SW,228,3.7,5.4,63,-99.99,,,-99.99,WSDL version 420,2013-01-03 05:49:00,
2013-01-02 22:54:00,3.8,-5.0,29.18,SSW,210,2.5,5.4,63,-99.99,,,-99.99,WSDL version 420,2013-01-03 05:54:00,
2013-01-02 22:59:00,3.7,-5.1,29.18,SSW,196,1.5,4.3,63,-99.99,,,-99.99,WSDL version 420,2013-01-03 05:59:00,
2013-01-02 23:04:00,3.5,-5.3,29.18,SSW,205,1.7,3.4,63,-99.99,,,-99.99,WSDL version 420,2013-01-03 06:04:00,
2013-01-02 23:09:00,3.1,-5.6,29.18,SSW,199,1.6,2.7,63,-99.99,,,-99.99,WSDL version 420,2013-01-03 06:09:00,
2013-01-02 23:14:00,3.0,-5.7,29.18,South,180,2.2,2.7,63,-99.99,,,-99.99,WSDL version 420,2013-01-03 06:14:00,
2013-01-02 23:19:00,2.9,-5.9,29.18,SSW,195,2.4,3.6,63,-99.99,,,-99.99,WSDL version 420,2013-01-03 06:19:00,
2013-01-02 23:24:00,2.9,-5.9,29.18,South,180,0.8,3.6,63,-99.99,,,-99.99,WSDL version 420,2013-01-03 06:24:00,
2013-01-02 23:29:00,2.7,-6.1,29.18,SSW,203,0.4,2.0,63,-99.99,,,-99.99,WSDL version 420,2013-01-03 06:29:00,
2013-01-02 23:34:00,2.4,-6.3,29.18,South,191,1.6,2.7,63,-99.99,,,-99.99,WSDL version 420,2013-01-03 06:34:00,
2013-01-02 23:39:00,2.2,-6.6,29.18,South,191,2.1,2.9,63,-99.99,,,-99.99,WSDL version 420,2013-01-03 06:39:00,
2013-01-02 23:44:00,2.1,-6.6,29.18,South,186,2.1,2.9,63,-99.99,,,-99.99,WSDL version 420,2013-01-03 06:44:00,
2013-01-02 23:49:00,1.9,-6.8,29.18,South,174,1.7,4.0,63,-99.99,,,-99.99,WSDL version 420,2013-01-03 06:49:00,
2013-01-02 23:54:00,2.1,-6.6,29.18,South,180,3.8,5.6,63,-99.99,,,-99.99,WSDL version 420,2013-01-03 06:54:00,
2013-01-02 23:59:00,2.4,-6.3,29.18,SSW,203,2.6,5.6,63,-99.99,,,-99.99,WSDL version 420,2013-01-03 06:59:00,